| time (UTC) | temp F | wind direction | speed knots | gust knots | rain 1hr in | rain 24hr in | rain mn in | humidity % | barometer mb |
| 20260504170302 | 64 | 120 | 4.3 | 0.0 | 0.00 | 0.00 | 0.00 | 56 | 1015.0 |
| 20260504160303 | 68 | 120 | 5.2 | 0.0 | 0.00 | 0.00 | 0.00 | 49 | 1014.0 |
| 20260504150302 | 70 | 0.9 | 0.0 | 0.00 | 0.00 | 0.00 | 38 | 1015.0 | |
| 20260504140303 | 70 | 1.7 | 0.0 | 0.00 | 0.00 | 0.00 | 38 | 1015.0 | |
| 20260504130302 | 70 | 100 | 5.2 | 0.0 | 0.00 | 0.00 | 0.00 | 38 | 1015.0 |
| 20260504120301 | 70 | 80 | 4.3 | 0.0 | 0.00 | 0.00 | 0.00 | 38 | 1015.0 |
| 20260504110302 | 68 | 1.7 | 0.0 | 0.00 | 0.00 | 0.00 | 35 | 1016.0 | |
| 20260504100302 | 68 | 0.9 | 0.0 | 0.00 | 0.00 | 0.00 | 38 | 1016.0 | |
| 20260504081802 | 64 | 260 | 4.3 | 0.0 | 0.00 | 0.00 | 0.00 | 43 | 1017.0 |
| 20260504080301 | 64 | 260 | 4.3 | 0.0 | 0.00 | 0.00 | 0.00 | 43 | 1017.0 |
| 20260504070303 | 61 | 260 | 2.6 | 0.0 | 0.00 | 0.00 | 0.00 | 48 | 1017.0 |
| 20260504050312 | 48 | 290 | 6.1 | 0.0 | 0.00 | 0.00 | 0.00 | 71 | 1017.0 |
| 20260504044802 | 45 | 280 | 4.3 | 0.0 | 0.00 | 0.00 | 0.00 | 76 | 1017.0 |
| 20260504043302 | 45 | 280 | 4.3 | 0.0 | 0.00 | 0.00 | 0.00 | 76 | 1017.0 |
| 20260504041802 | 43 | 260 | 4.3 | 0.0 | 0.00 | 0.00 | 0.00 | 81 | 1017.0 |
| 20260504040302 | 43 | 260 | 4.3 | 0.0 | 0.00 | 0.00 | 0.00 | 81 | 1017.0 |
| 20260504034802 | 39 | 270 | 6.1 | 0.0 | 0.00 | 0.00 | 0.00 | 93 | 1017.0 |
| 20260504033302 | 39 | 270 | 6.1 | 0.0 | 0.00 | 0.00 | 0.00 | 93 | 1017.0 |
| 20260504031802 | 39 | 270 | 7.0 | 0.0 | 0.00 | 0.00 | 0.00 | 93 | 1017.0 |
| 20260504030416 | 39 | 270 | 7.0 | 0.0 | 0.00 | 0.00 | 0.00 | 93 | 1017.0 |
| 20260504024802 | 39 | 270 | 7.0 | 0.0 | 0.00 | 0.00 | 0.00 | 87 | 1017.0 |
| 20260504023302 | 39 | 270 | 7.0 | 0.0 | 0.00 | 0.00 | 0.00 | 87 | 1017.0 |
| 20260504021801 | 39 | 280 | 7.0 | 0.0 | 0.00 | 0.00 | 0.00 | 87 | 1018.0 |
| 20260504020302 | 39 | 280 | 7.0 | 0.0 | 0.00 | 0.00 | 0.00 | 87 | 1018.0 |
| 20260504014802 | 41 | 270 | 7.8 | 0.0 | 0.00 | 0.00 | 0.00 | 81 | 1018.0 |
| 20260504013307 | 41 | 270 | 7.8 | 0.0 | 0.00 | 0.00 | 0.00 | 81 | 1018.0 |
| 20260504011915 | 41 | 270 | 8.7 | 0.0 | 0.00 | 0.00 | 0.00 | 81 | 1018.0 |
| 20260504010302 | 41 | 270 | 8.7 | 0.0 | 0.00 | 0.00 | 0.00 | 81 | 1018.0 |
| 20260504004916 | 41 | 260 | 6.1 | 0.0 | 0.00 | 0.00 | 0.00 | 87 | 1018.0 |
| 20260504003301 | 41 | 260 | 6.1 | 0.0 | 0.00 | 0.00 | 0.00 | 87 | 1018.0 |
| 20260504001802 | 41 | 280 | 5.2 | 0.0 | 0.00 | 0.00 | 0.00 | 81 | 1018.0 |
| 20260504000302 | 41 | 280 | 5.2 | 0.0 | 0.00 | 0.00 | 0.00 | 81 | 1018.0 |
| 20260503234841 | 41 | 300 | 6.1 | 0.0 | 0.00 | 0.00 | 0.00 | 87 | 1018.0 |
| 20260503233302 | 41 | 300 | 6.1 | 0.0 | 0.00 | 0.00 | 0.00 | 87 | 1018.0 |
| 20260503231805 | 43 | 300 | 7.0 | 0.0 | 0.00 | 0.00 | 0.00 | 81 | 1018.0 |
| 20260503230314 | 43 | 300 | 7.0 | 0.0 | 0.00 | 0.00 | 0.00 | 81 | 1018.0 |
| 20260503224802 | 43 | 300 | 7.0 | 0.0 | 0.00 | 0.00 | 0.00 | 81 | 1018.0 |
| 20260503223314 | 43 | 300 | 7.0 | 0.0 | 0.00 | 0.00 | 0.00 | 81 | 1018.0 |
| 20260503221818 | 43 | 290 | 7.0 | 0.0 | 0.00 | 0.00 | 0.00 | 81 | 1019.0 |
| 20260503220344 | 43 | 290 | 7.0 | 0.0 | 0.00 | 0.00 | 0.00 | 81 | 1019.0 |
| 20260503214809 | 43 | 270 | 7.0 | 0.0 | 0.00 | 0.00 | 0.00 | 81 | 1019.0 |
| 20260503213302 | 43 | 270 | 7.0 | 0.0 | 0.00 | 0.00 | 0.00 | 81 | 1019.0 |
| 20260503211802 | 45 | 280 | 6.1 | 0.0 | 0.00 | 0.00 | 0.00 | 76 | 1019.0 |
| 20260503210302 | 45 | 280 | 6.1 | 0.0 | 0.00 | 0.00 | 0.00 | 76 | 1019.0 |
| 20260503204809 | 45 | 280 | 7.0 | 0.0 | 0.00 | 0.00 | 0.00 | 76 | 1019.0 |
| 20260503203415 | 45 | 280 | 7.0 | 0.0 | 0.00 | 0.00 | 0.00 | 76 | 1019.0 |
| 20260503201802 | 46 | 270 | 6.1 | 0.0 | 0.00 | 0.00 | 0.00 | 66 | 1019.0 |
| 20260503200311 | 46 | 270 | 6.1 | 0.0 | 0.00 | 0.00 | 0.00 | 66 | 1019.0 |
| 20260503194826 | 48 | 270 | 4.3 | 0.0 | 0.00 | 0.00 | 0.00 | 62 | 1020.0 |
| 20260503193416 | 48 | 270 | 4.3 | 0.0 | 0.00 | 0.00 | 0.00 | 62 | 1020.0 |
| 20260503191802 | 50 | 0 | 0.0 | 0.0 | 0.00 | 0.00 | 0.00 | 50 | 1019.0 |
| 20260503190302 | 50 | 0 | 0.0 | 0.0 | 0.00 | 0.00 | 0.00 | 50 | 1019.0 |
| 20260503184915 | 52 | 0 | 0.0 | 0.0 | 0.00 | 0.00 | 0.00 | 50 | 1019.0 |
| 20260503183301 | 52 | 0 | 0.0 | 0.0 | 0.00 | 0.00 | 0.00 | 50 | 1019.0 |
| 20260503181802 | 52 | 140 | 1.7 | 0.0 | 0.00 | 0.00 | 0.00 | 47 | 1019.0 |
| 20260503180301 | 52 | 140 | 1.7 | 0.0 | 0.00 | 0.00 | 0.00 | 47 | 1019.0 |
| 20260503174822 | 52 | 110 | 2.6 | 0.0 | 0.00 | 0.00 | 0.00 | 50 | 1019.0 |
| 20260503173326 | 52 | 110 | 2.6 | 0.0 | 0.00 | 0.00 | 0.00 | 50 | 1019.0 |
| 20260503171802 | 55 | 100 | 1.7 | 0.0 | 0.00 | 0.00 | 0.00 | 47 | 1019.0 |